TimeEDT,TemperatureF,Dew PointF,Humidity,Sea Level PressureIn,VisibilityMPH,Wind Direction,Wind SpeedMPH,Gust SpeedMPH,PrecipitationIn,Events,Conditions,WindDirDegrees,DateUTC
12:15 AM,26.6,24.8,93,29.71,10.0,Calm,Calm,-,N/A,,Overcast,0,2013-03-20 04:15:00
12:35 AM,28.4,19.4,69,29.70,10.0,WNW,5.8,-,N/A,,Overcast,290,2013-03-20 04:35:00
1:15 AM,28.4,21.2,74,29.69,5.0,WSW,5.8,-,N/A,,Overcast,250,2013-03-20 05:15:00
1:35 AM,26.6,21.2,80,29.69,6.0,WSW,12.7,17.3,N/A,,Overcast,250,2013-03-20 05:35:00
1:55 AM,26.6,21.2,80,29.68,7.0,SSW,8.1,-,N/A,,Overcast,210,2013-03-20 05:55:00
2:15 AM,26.6,19.4,74,29.68,10.0,SW,5.8,-,N/A,,Overcast,220,2013-03-20 06:15:00
2:35 AM,26.6,19.4,74,29.68,10.0,WSW,5.8,-,N/A,,Overcast,240,2013-03-20 06:35:00
2:55 AM,26.6,19.4,74,29.68,9.0,West,5.8,-,N/A,,Overcast,260,2013-03-20 06:55:00
3:15 AM,24.8,17.6,74,29.68,10.0,WSW,12.7,-,N/A,,Overcast,240,2013-03-20 07:15:00
3:35 AM,24.8,17.6,74,29.68,7.0,WSW,10.4,19.6,N/A,,Overcast,240,2013-03-20 07:35:00
3:55 AM,24.8,17.6,74,29.68,10.0,WSW,6.9,16.1,N/A,,Overcast,240,2013-03-20 07:55:00
4:35 AM,24.8,17.6,74,29.69,10.0,SW,6.9,-,N/A,,Overcast,230,2013-03-20 08:35:00
4:55 AM,24.8,17.6,74,29.69,10.0,WSW,5.8,-,N/A,,Overcast,250,2013-03-20 08:55:00
5:15 AM,24.8,17.6,74,29.68,9.0,SW,5.8,-,N/A,,Overcast,220,2013-03-20 09:15:00
5:35 AM,24.8,17.6,74,29.69,8.0,WSW,6.9,-,N/A,,Overcast,240,2013-03-20 09:35:00
6:15 AM,23.0,15.8,74,29.70,10.0,SW,9.2,-,N/A,,Mostly Cloudy,230,2013-03-20 10:15:00
6:55 AM,21.2,15.8,80,29.70,4.0,WSW,8.1,-,N/A,,Clear,250,2013-03-20 10:55:00
7:15 AM,23.0,15.8,74,29.71,9.0,WSW,8.1,16.1,N/A,,Clear,240,2013-03-20 11:15:00
7:35 AM,23.0,15.8,74,29.71,8.0,WSW,6.9,-,N/A,,Clear,240,2013-03-20 11:35:00
7:55 AM,21.2,15.8,80,29.71,9.0,WSW,3.5,-,N/A,,Clear,250,2013-03-20 11:55:00
8:15 AM,23.0,15.8,74,29.71,9.0,WSW,11.5,-,N/A,,Scattered Clouds,250,2013-03-20 12:15:00
8:35 AM,23.0,17.6,80,29.71,7.0,WSW,8.1,-,N/A,,Overcast,240,2013-03-20 12:35:00
8:55 AM,24.8,17.6,74,29.70,10.0,WSW,5.8,-,N/A,,Overcast,250,2013-03-20 12:55:00
9:35 AM,24.8,17.6,74,29.70,6.0,WSW,13.8,18.4,N/A,,Overcast,250,2013-03-20 13:35:00
9:55 AM,24.8,15.8,69,29.70,5.0,WSW,13.8,19.6,N/A,,Overcast,250,2013-03-20 13:55:00
10:15 AM,24.8,17.6,74,29.71,6.0,West,10.4,18.4,N/A,,Overcast,260,2013-03-20 14:15:00
10:35 AM,24.8,17.6,74,29.71,8.0,West,8.1,-,N/A,,Overcast,260,2013-03-20 14:35:00
10:55 AM,26.6,17.6,69,29.71,10.0,West,11.5,18.4,N/A,,Overcast,270,2013-03-20 14:55:00
11:15 AM,26.6,17.6,69,29.70,10.0,WSW,11.5,-,N/A,,Overcast,250,2013-03-20 15:15:00
11:35 AM,26.6,17.6,69,29.70,10.0,WSW,12.7,18.4,N/A,,Overcast,250,2013-03-20 15:35:00
11:55 AM,26.6,17.6,69,29.70,8.0,WSW,11.5,20.7,N/A,,Overcast,240,2013-03-20 15:55:00
12:15 PM,28.4,17.6,64,29.70,3.0,WSW,11.5,23.0,N/A,,Overcast,250,2013-03-20 16:15:00
12:35 PM,28.4,19.4,69,29.70,7.0,WSW,10.4,17.3,N/A,,Overcast,250,2013-03-20 16:35:00
1:15 PM,28.4,17.6,64,29.69,5.0,WSW,9.2,18.4,N/A,,Overcast,240,2013-03-20 17:15:00
1:35 PM,30.2,19.4,64,29.69,9.0,WSW,11.5,24.2,N/A,,Overcast,250,2013-03-20 17:35:00
1:55 PM,30.2,19.4,64,29.68,10.0,WSW,12.7,24.2,N/A,,Overcast,250,2013-03-20 17:55:00
2:15 PM,30.2,17.6,60,29.67,10.0,WSW,18.4,24.2,N/A,,Mostly Cloudy,240,2013-03-20 18:15:00
2:35 PM,30.2,19.4,64,29.67,10.0,SW,17.3,23.0,N/A,,Overcast,220,2013-03-20 18:35:00
2:55 PM,30.2,19.4,64,29.67,9.0,SW,15.0,20.7,N/A,,Overcast,230,2013-03-20 18:55:00
3:35 PM,32.0,19.4,60,29.66,10.0,SW,9.2,20.7,N/A,,Mostly Cloudy,230,2013-03-20 19:35:00
3:55 PM,32.0,19.4,60,29.66,10.0,SW,17.3,23.0,N/A,,Mostly Cloudy,230,2013-03-20 19:55:00
4:15 PM,33.8,17.6,52,29.67,10.0,WSW,15.0,27.6,N/A,,Overcast,250,2013-03-20 20:15:00
4:35 PM,32.0,19.4,60,29.67,6.0,SW,19.6,28.8,N/A,,Overcast,230,2013-03-20 20:35:00
4:55 PM,32.0,19.4,60,29.68,10.0,SW,10.4,19.6,N/A,,Overcast,230,2013-03-20 20:55:00
5:15 PM,32.0,17.6,55,29.68,10.0,SW,10.4,19.6,N/A,,Overcast,230,2013-03-20 21:15:00
5:35 PM,32.0,15.8,51,29.68,10.0,WSW,15.0,24.2,N/A,,Overcast,240,2013-03-20 21:35:00
5:55 PM,30.2,15.8,55,29.69,9.0,West,16.1,25.3,N/A,,Overcast,260,2013-03-20 21:55:00
6:15 PM,32.0,15.8,51,29.69,10.0,West,15.0,23.0,N/A,,Mostly Cloudy,260,2013-03-20 22:15:00
6:55 PM,30.2,17.6,60,29.71,10.0,West,13.8,17.3,N/A,,Overcast,270,2013-03-20 22:55:00
7:15 PM,30.2,17.6,60,29.72,10.0,SW,13.8,-,N/A,,Overcast,230,2013-03-20 23:15:00
7:35 PM,30.2,17.6,60,29.72,10.0,WSW,12.7,17.3,N/A,,Mostly Cloudy,240,2013-03-20 23:35:00
8:15 PM,28.4,15.8,59,29.73,10.0,SW,5.8,-,N/A,,Mostly Cloudy,230,2013-03-21 00:15:00
8:35 PM,28.4,15.8,59,29.73,10.0,WSW,3.5,-,N/A,,Mostly Cloudy,250,2013-03-21 00:35:00
8:55 PM,28.4,15.8,59,29.73,10.0,West,4.6,-,N/A,,Scattered Clouds,260,2013-03-21 00:55:00
9:35 PM,28.4,15.8,59,29.74,10.0,West,5.8,-,N/A,,Mostly Cloudy,260,2013-03-21 01:35:00
9:55 PM,28.4,15.8,59,29.74,8.0,WSW,9.2,-,N/A,,Mostly Cloudy,240,2013-03-21 01:55:00
10:15 PM,28.4,15.8,59,29.74,10.0,SW,5.8,-,N/A,,Partly Cloudy,230,2013-03-21 02:15:00
10:35 PM,-9999,-9999,N/A,29.73,10.0,WSW,4.6,-,N/A,,Partly Cloudy,250,2013-03-21 02:35:00
10:55 PM,26.6,14.0,59,29.73,10.0,WSW,5.8,-,N/A,,Clear,250,2013-03-21 02:55:00
11:15 PM,26.6,14.0,59,29.74,10.0,SW,6.9,-,N/A,,Clear,220,2013-03-21 03:15:00
11:35 PM,26.6,14.0,59,29.74,10.0,SW,5.8,-,N/A,,Clear,220,2013-03-21 03:35:00
11:55 PM,26.6,15.8,64,29.74,10.0,SW,5.8,-,N/A,,Partly Cloudy,230,2013-03-21 03:55:00